Weather History for Point Mugu, CA

Change the Weather History Date:

Saturday, January 5, 2013

  Actual Average Record
Temperature  
Mean Temperature 49 °F -  
Max Temperature 61 °F 61 °F 81 °F (2006)
Min Temperature 37 °F 44 °F 33 °F (2009)
Degree Days  
Heating Degree Days 16    
Moisture  
Dew Point 44 °F    
Average Humidity 82    
Maximum Humidity 93    
Minimum Humidity 75    
Precipitation  
Precipitation 0.00 in - - ()
Sea Level Pressure  
Sea Level Pressure 30.25 in    
Wind  
Wind Speed 4 mph (NNW)    
Max Wind Speed 9 mph    
Max Gust Speed -    
Visibility 7 miles    
Events Rain    
Averages and records for this station are not official NWS values.
T = Trace of Precipitation, MM = Missing Value Source: NWS Daily Summary

Daily Weather History Graph

Daily Weather History Graph

Search for Another Location

Airport:

Trip Planner

Search our weather history database for the weather conditions in past years. The results will help you decide how hot, cold, wet, or windy it might be!

Date:

Astronomy

Jan. 05, 2013 Rise Set
Actual Time 7:02 AM PST 5:01 PM PST
Civil Twilight 6:35 AM PST 5:29 PM PST
Nautical Twilight 6:04 AM PST 6:00 PM PST
Astronomical Twilight 5:33 AM PST 6:30 PM PST
Moon 12:23 AM PST (1/5) 11:46 AM PST (1/5)
Length of Visible Light 10h 53m
Length of Day
9h 58m
Last Quarter, 43% of the Moon is Illuminated
Jan 5
Last Quarter
Jan 11
New
Jan 18
First Quarter
Jan 26
Full
Feb 3
Last Quarter

Hourly Weather History & Observations

Time (PST) Temp. Windchill Dew Point Humidity Pressure Visibility Wind Dir Wind Speed Gust Speed Precip Events Conditions
12:54 AM 42.1 °F 38.4 °F 35.1 °F 76% 30.24 in - North 5.8 mph - N/A   Clear
1:54 AM 41.0 °F 39.0 °F 34.0 °F 76% 30.26 in - North 3.5 mph - N/A   Clear
2:54 AM 37.9 °F - 32.0 °F 79% 30.26 in - Calm Calm - N/A   Clear
3:54 AM 37.0 °F 34.5 °F 30.9 °F 79% 30.26 in - NNE 3.5 mph - 0.00 in   Clear
4:54 AM 39.0 °F 36.8 °F 33.1 °F 79% 30.26 in - NNE 3.5 mph - N/A   Clear
5:54 AM 39.0 °F 35.7 °F 32.0 °F 76% 30.27 in - North 4.6 mph - N/A   Clear
6:54 AM 39.0 °F 34.8 °F 32.0 °F 76% 30.28 in - North 5.8 mph - N/A   Clear
7:54 AM 43.0 °F 39.5 °F 36.0 °F 76% 30.30 in - Variable 5.8 mph - N/A   Clear
8:54 AM 48.9 °F - 43.0 °F 80% 30.31 in - NNE 4.6 mph - N/A   Clear
9:54 AM 55.0 °F - 48.9 °F 80% 30.32 in - Calm Calm - N/A   Clear
10:02 AM 55.4 °F - 50.0 °F 82% 30.31 in 7.0 mi Calm Calm - N/A   Scattered Clouds
10:54 AM 61.0 °F - 55.0 °F 81% 30.30 in 7.0 mi Calm Calm - N/A   Scattered Clouds
11:54 AM 61.0 °F - 53.1 °F 75% 30.25 in 7.0 mi SW 4.6 mph - N/A   Scattered Clouds
12:54 PM 60.1 °F - 53.1 °F 78% 30.23 in 7.0 mi WSW 5.8 mph - N/A   Mostly Cloudy
1:54 PM 59.0 °F - 52.0 °F 78% 30.22 in 7.0 mi West 9.2 mph - N/A   Mostly Cloudy
2:54 PM 60.1 °F - 53.1 °F 78% 30.21 in 7.0 mi SSW 3.5 mph - N/A   Mostly Cloudy
3:54 PM 57.0 °F - 50.0 °F 77% 30.20 in 7.0 mi WSW 3.5 mph - N/A   Mostly Cloudy
4:54 PM 53.1 °F - 48.0 °F 83% 30.21 in 7.0 mi West 6.9 mph - N/A   Overcast
5:54 PM 52.0 °F - 48.9 °F 89% 30.21 in 7.0 mi Calm Calm - N/A   Overcast
6:54 PM 50.0 °F - 48.0 °F 93% 30.20 in - Calm Calm - N/A   Clear
7:54 PM 48.9 °F - 46.9 °F 93% 30.21 in - West 4.6 mph - N/A   Clear
8:54 PM 48.0 °F - 46.0 °F 93% 30.22 in - ENE 8.1 mph - N/A   Clear
9:54 PM 48.9 °F - 46.9 °F 93% 30.22 in - Calm Calm - N/A   Scattered Clouds
10:54 PM 50.0 °F - 48.0 °F 93% 30.22 in - Calm Calm - N/A   Overcast
11:54 PM 48.9 °F - 46.0 °F 90% 30.21 in - NNE 4.6 mph - 0.00 in Rain Light Rain